www.pogodaiklimat.ru

Погода и климат >> Архив погоды >> Антарктида >> Troll


ПОГОДА в Troll

  • Прогноз погоды в Troll
  • Монитор погоды в Troll
  • Климат города

АРХИВ ПОГОДЫ в Troll

Время (UTC), дата Ветер
(напр.,м/с)
 
Видим.   Явления Облачность Т
(С)
Тd
(С)
f
(%)
Тe
(С)
Тes
(С)
Комфортность P
(гПа)
Po
(гПа)
Тmin
(С)
Tmax
(С)
R
(мм)
R24
(мм)
S
(см)
04 12.12 Ю 2 н/о н/о -5.7 -14.9 48 -10 -10 993.8 846.5
05 12.12 ЮЗ 2 н/о н/о -3.9 -17.0 35 -6 -6 992.0 845.8
06 12.12 Ю 1
{3}
>70 км ясно -3.8 -16.6 36 -5 -1 991.7 845.5 -7.3
07 12.12 СВ 1 н/о н/о -3.8 -14.8 42 -5 -5 991.0 845.0
08 12.12 С 2 н/о н/о -3.1 -12.8 47 -6 -6 989.9 844.5
09 12.12 С 1 н/о н/о -1.7 -12.5 43 -3 -3 988.7 844.2
10 12.12 ЮЗ 1 н/о н/о -1.6 -10.4 51 -2 -2 988.0 843.6
11 12.12 С 1 н/о н/о -0.2 -14.1 34 -1 -1 986.6 843.0
12 12.12 СВ 1
{4}
>70 км ясно +0.6 -10.5 43 0 +11 985.6 842.5
13 12.12 З 1 н/о н/о +0.5 -11.8 39 -1 -1 984.9 841.9
14 12.12 З 1 н/о н/о +2.3 -14.3 28 +2 +2 983.4 841.4
15 12.12 С 2 н/о н/о +0.1 -9.8 47 -3 -3 984.0 841.2
16 12.12 С 2 н/о н/о +0.3 -9.4 48 -2 -2 984.3 841.2
17 12.12 С 2 н/о н/о -1.4 -8.0 61 -5 -5 985.4 841.4
18 12.12 С 1
{3}
>70 км ясно -0.6 -9.7 50 -2 +2 985.1 841.5 +2.5
19 12.12 С 2 н/о н/о -2.1 -9.1 59 -5 -5 986.1 841.6
20 12.12 С 2 н/о н/о -5.3 -10.1 69 -9 -9 988.1 841.8
21 12.12 СВ 1 н/о н/о -5.5 -11.0 65 -6 -6 988.2 841.7
22 12.12 СВ 2 н/о н/о -5.9 -10.8 68 -9 -9 988.3 841.6
23 12.12 СВ 1 н/о н/о -6.1 -10.7 70 -7 -7 988.4 841.7
00 13.12 В 1
{4}
н/о н/о -6.2 -10.3 73 -8 -8 988.7 841.8
01 13.12 Ю 2 н/о н/о -5.2 -16.9 39 -8 -8 987.2 841.1
02 13.12 Ю 1 н/о н/о -5.1 -19.6 31 -7 -7 986.8 840.7
03 13.12 Ю 2 н/о н/о -5.8 -19.5 33 -9 -9 986.6 840.3
04 13.12 В 2 н/о н/о -6.5 -17.5 41 -9 -9 987.2 840.4
05 13.12 ЮВ 1 н/о н/о -4.9 -17.3 37 -5 -5 985.6 839.8
06 13.12 СВ 1
{4}
>70 км 1/0
[Cs]
-4.2 -17.3 35 -6 -2 984.6 839.4 -7.4
07 13.12 С 2 н/о н/о -4.6 -19.9 29 -8 -8 985.1 839.6
08 13.12 ЮЗ 2 н/о н/о -4.6 -18.4 33 -7 -7 984.9 839.4
09 13.12 С 2 н/о н/о -4.1 -21.8 24 -7 -7 984.4 839.2
10 13.12 СВ 4 н/о н/о -4.5 -19.8 29 -10 -10 984.3 839.0
11 13.12 С 5 н/о н/о -4.9 -17.3 37 -11 -11 984.9 839.1
12 13.12 С 2
{7}
>70 км 1/1 1500 м
[Cu hum Ci sp]
-6.0 -16.8 42 -10 -1 985.4 839.1
13 13.12 З 3 н/о н/о -6.6 -16.0 47 -11 -11 985.4 838.7
14 13.12 ЮЗ 3 н/о н/о -6.0 -16.2 44 -10 -10 983.7 837.8
15 13.12 ЮЗ 4 н/о н/о -6.1 -15.8 46 -12 -12 983.0 837.1
16 13.12 ЮЗ 4 н/о н/о -6.0 -13.4 56 -12 -12 982.1 836.2
17 13.12 ЮЗ 3 н/о н/о -5.6 -14.6 49 -10 -10 980.6 835.3
18 13.12 З 1
{5}
>70 км 1/1 1000 м
[Cu hum]
-3.7 -15.2 40 -5 -2 979.3 835.0 -3.7
19 13.12 СЗ 1 н/о н/о -4.0 -16.8 36 -5 -5 979.0 834.7
20 13.12 СЗ 1 н/о н/о -4.6 -16.4 39 -5 -5 978.8 834.3
21 13.12 ЮЗ 2 н/о н/о -5.9 -13.5 55 -9 -9 979.3 834.1
22 13.12 З 1 н/о н/о -5.7 -15.7 45 -8 -8 979.0 833.9
23 13.12 СВ 3 н/о н/о -6.3 -18.2 38 -11 -11 979.2 833.7
00 14.12 С 2
{4}
н/о н/о -7.4 -17.3 45 -11 -11 979.8 833.7
01 14.12 СВ 1 н/о н/о -7.2 -17.3 44 -7 -7 979.7 833.7
02 14.12 З 1 н/о н/о -7.5 -18.4 41 -8 -8 979.4 833.3
03 14.12 Ю 1 н/о н/о -8.0 -18.6 42 -10 -10 979.3 833.0
04 14.12 СВ 1 н/о н/о -6.7 -20.3 33 -8 -8 978.8 833.2
05 14.12 С 1 н/о н/о -7.5 -17.9 43 -9 -9 979.6 833.4
06 14.12 З 2
{4}
50 км 8/0 2000 м
[Ac As]
-7.4 -17.8 43 -11 -9 979.4 833.3 -8.2
07 14.12 СЗ 1 н/о н/о -6.7 -19.2 36 -7 -7 978.8 833.2
08 14.12 С 1 н/о н/о -5.5 -19.6 32 -7 -7 977.9 833.1
09 14.12 С 3 н/о н/о -6.2 -17.8 39 -11 -11 978.2 833.0
10 14.12 З 1 н/о н/о -5.6 -16.7 41 -7 -7 977.9 833.0
11 14.12 С 3 н/о н/о -5.8 -16.6 42 -10 -10 978.0 832.9
12 14.12 С 2
{5}
>70 км 8/8 1000 м
[Cu hum Ac lent]
-5.7 -16.0 44 -9 -8 977.8 832.8
13 14.12 С 3 н/о н/о -6.7 -14.5 54 -11 -11 978.3 832.8
14 14.12 СЗ 2 н/о н/о -6.1 -13.1 58 -9 -9 977.7 832.5
15 14.12 С 2 н/о н/о -6.3 -13.5 57 -9 -9 977.3 832.4
16 14.12 З 2 н/о н/о -6.2 -13.2 58 -9 -9 977.4 832.3
17 14.12 СЗ 2 н/о н/о -5.9 -12.5 60 -9 -9 977.5 832.3
18 14.12 С 2
{5}
>70 км слабый снег 9/8 600 м
[St Ac trans Ci fib]
-7.3 -14.0 59 -11 -11 978.3 832.5 -4.4 0.0
19 14.12 С 2 н/о н/о -7.2 -16.1 49 -10 -10 978.2 832.5
20 14.12 ЮЗ 2 н/о н/о -7.8 -12.5 69 -12 -12 978.7 832.6
21 14.12 Ю 2 н/о н/о -7.7 -12.9 66 -11 -11 979.2 833.0
22 14.12 СВ 3 н/о н/о -8.0 -16.4 51 -13 -13 979.6 833.2
23 14.12 СВ 4 н/о н/о -9.0 -16.9 53 -16 -16 980.6 833.6
00 15.12 СВ 4
{9}
н/о н/о -9.7 -15.5 63 -17 -17 981.8 834.2
01 15.12 СВ 6 н/о н/о -10.3 -15.9 63 -19 -19 982.8 834.7
02 15.12 СВ 6 н/о н/о -10.9 -16.9 61 -19 -19 984.2 835.6
03 15.12 СВ 6 н/о н/о -11.2 -17.1 62 -20 -20 985.1 836.2
04 15.12 В 6 н/о н/о -11.7 -17.4 63 -21 -21 986.0 836.8
05 15.12 СВ 6 н/о н/о -11.5 -17.4 62 -20 -20 986.0 836.9
06 15.12 СВ 6
{11}
17 км осадки на расстоянии 9/6 600 м
[St Ac As]
-11.4 -17.3 62 -20 -20 986.2 837.2 -11.8
07 15.12 СВ 6 н/о н/о -11.7 -17.4 63 -20 -20 987.3 837.9
08 15.12 СВ 5 н/о н/о -10.9 -16.5 63 -19 -19 987.2 838.2
09 15.12 СВ 4 н/о н/о -10.4 -16.8 59 -17 -17 987.1 838.3
10 15.12 СВ 5 н/о н/о -9.8 -17.0 56 -17 -17 986.5 838.2
11 15.12 СВ 6 н/о н/о -8.8 -17.3 50 -17 -17 985.9 838.1
12 15.12 СВ 6
{12}
12 км 9/4 1000 м
[Sc Ac As]
-8.1 -17.4 47 -16 -15 985.6 838.2 0.0
13 15.12 СВ 6 н/о н/о -8.4 -17.2 49 -16 -16 985.7 838.3
14 15.12 СВ 5 н/о н/о -7.6 -16.2 50 -14 -14 985.3 838.1
15 15.12 СВ 5 н/о н/о -7.5 -16.4 49 -14 -14 985.0 838.0
16 15.12 СВ 5 н/о н/о -8.3 -16.0 54 -15 -15 985.2 837.8
17 15.12 СВ 3 н/о н/о -8.5 -15.1 59 -14 -14 984.9 837.7
18 15.12 С 3
{10}
7000 м осадки на расстоянии 9/4 600 м
[Frnb As op Cs]
-9.1 -15.1 62 -15 -14 985.3 837.6 -7.1
19 15.12 СВ 3 н/о н/о -9.4 -15.2 63 -15 -15 985.7 837.7
20 15.12 С 3 н/о н/о -9.2 -15.2 62 -14 -14 985.6 837.7
21 15.12 СВ 3 н/о н/о -9.6 -15.1 64 -15 -15 986.0 837.8
22 15.12 СВ 3 н/о н/о -10.0 -15.5 64 -15 -15 986.3 837.9
23 15.12 СВ 2 н/о н/о -9.9 -15.5 64 -14 -14 986.1 837.8
00 16.12 СВ 2
{6}
н/о н/о -10.3 -15.7 65 -14 -14 986.2 837.7
01 16.12 СВ 4 н/о н/о -10.4 -15.8 65 -17 -17 986.5 837.9
02 16.12 СВ 4 н/о н/о -10.5 -16.1 63 -17 -17 986.6 837.9
03 16.12 СВ 3 н/о н/о -10.4 -16.4 61 -16 -16 986.6 838.0
04 16.12 СВ 3 н/о н/о -10.1 -16.3 60 -15 -15 986.3 837.9
05 16.12 СВ 3 н/о н/о -9.4 -16.0 59 -15 -15 986.1 838.0
06 16.12 СВ 3
{6}
45 км {снег} 6/1 1000 м
[Cu Sc Ac inh Cs]
-8.9 -15.7 58 -15 -13 985.8 838.1 -10.6
07 16.12 С 3 н/о н/о -9.0 -14.9 62 -14 -14 986.2 838.3
08 16.12 СВ 4 н/о н/о -8.8 -16.7 53 -15 -15 986.2 838.5
09 16.12 СВ 4 н/о н/о -8.8 -15.6 58 -15 -15 986.7 838.9
10 16.12 СВ 4 н/о н/о -8.5 -15.7 56 -15 -15 987.0 839.2
11 16.12 СВ 4 н/о н/о -7.6 -15.3 54 -14 -14 986.7 839.5
12 16.12 СВ 4
{8}
16 км 9/5 600 м
[St As trans Cs]
-8.0 -15.5 55 -14 -12 986.9 839.5 0.0
13 16.12 СВ 5 н/о н/о -7.3 -15.3 53 -14 -14 986.4 839.6
14 16.12 СВ 4 н/о н/о -7.3 -15.5 52 -13 -13 986.7 839.8
15 16.12 СВ 4 н/о н/о -6.2 -14.9 50 -12 -12 986.7 839.9
16 16.12 С 4 н/о н/о -7.0 -13.7 59 -13 -13 986.8 839.9
17 16.12 С 4 н/о н/о -7.5 -13.6 62 -14 -14 987.1 839.9
18 16.12 С 3
{8}
20 км 9/8 600 м
[St As trans Cs]
-8.2 -13.5 66 -13 -13 988.0 840.3 -6.1
19 16.12 С 2 н/о н/о -8.9 -13.4 70 -13 -13 988.7 840.5
20 16.12 З 1 н/о н/о -9.0 -12.8 74 -11 -11 988.8 840.5
21 16.12 ЮЗ 2 н/о н/о -8.8 -12.8 73 -13 -13 988.3 840.3
22 16.12 З 1 н/о н/о -9.5 -13.3 74 -12 -12 989.1 840.5
23 16.12 ЮЗ 1 н/о н/о -10.3 -14.2 73 -11 -11 989.6 840.6
00 17.12 З 1
{4}
н/о н/о -10.9 -15.8 67 -11 -11 990.2 840.7
01 17.12 ЮЗ 2 н/о н/о -10.8 -15.5 68 -14 -14 990.1 840.7
02 17.12 З 1 н/о н/о -11.2 -17.0 62 -13 -13 990.3 840.7
03 17.12 ЮЗ 1 н/о н/о -11.3 -17.2 62 -12 -12 990.4 840.7
04 17.12 ЮЗ 1 н/о н/о -9.4 -19.4 44 -10 -10 989.4 840.8
05 17.12 СВ 2 н/о н/о -9.9 -15.5 64 -13 -13 989.8 840.9
06 17.12 СВ 1
{3}
>70 км 3/0 2000 м
[Ac As Cs]
-9.4 -14.9 64 -12 -8 989.8 841.2 -12.0
07 17.12 С 1 н/о н/о -8.7 -15.5 58 -11 -11 989.9 841.6
08 17.12 З 1 н/о н/о -8.6 -13.9 65 -11 -11 990.2 841.9
09 17.12 ЮЗ 1 н/о н/о -7.5 -14.2 59 -10 -10 990.0 842.3
10 17.12 С 1 н/о н/о -6.3 -16.8 43 -8 -8 989.4 842.5
11 17.12 С 2 н/о н/о -6.5 -16.7 44 -10 -10 990.1 842.8
12 17.12 С 2
{3}
>70 км 1/1 600 м
[Cu hum]
-6.4 -16.6 44 -9 0 990.2 843.2
13 17.12 З 1 н/о н/о -6.0 -16.0 45 -8 -8 990.5 843.6
14 17.12 З 1 н/о н/о -5.8 -15.0 48 -8 -8 990.8 844.0
15 17.12 З 2 н/о н/о -6.2 -14.4 52 -9 -9 991.5 844.3
16 17.12 СЗ 2 н/о н/о -6.1 -13.9 54 -9 -9 991.6 844.4
17 17.12 ЮЗ 2 н/о н/о -6.2 -15.6 47 -9 -9 992.0 844.7
18 17.12 З 2
{3}
>70 км 1/1 300 м
[Cu hum]
-6.0 -14.7 50 -9 -6 992.5 845.2 -5.1
19 17.12 ЮЗ 2 н/о н/о -6.4 -13.8 56 -10 -10 993.3 845.7
20 17.12 ЮЗ 2 н/о н/о -6.6 -15.3 50 -10 -10 994.0 846.2
21 17.12 З 1 н/о н/о -6.2 -16.4 44 -6 -6 994.5 846.8
22 17.12 СВ 2 н/о н/о -7.9 -14.8 58 -11 -11 996.0 847.2
23 17.12 СВ 1 н/о н/о -9.5 -13.6 72 -12 -12 997.5 847.7
00 18.12 С 1
{3}
н/о н/о -10.0 -13.6 75 -10 -10 998.4 848.2
01 18.12 З 1 н/о н/о -9.8 -14.6 68 -10 -10 998.6 848.5
02 18.12 С 1 н/о н/о -10.2 -14.3 72 -11 -11 999.6 849.1
03 18.12 штиль 0 н/о н/о -10.6 -15.2 69 -11 -11 1000.5 849.7
04 18.12 ЮЗ 1 н/о н/о -8.9 -14.8 62 -9 -9 999.9 850.0
05 18.12 ЮЗ 1 н/о н/о -8.4 -14.5 61 -11 -11 1000.0 850.4
06 18.12 СВ 1
{1}
>70 км 6/0
[Cs]
-6.0 -14.5 51 -6 -2 999.0 850.8 -10.6
07 18.12 З 1 н/о н/о -5.5 -12.1 60 -6 -6 999.3 851.3
08 18.12 ЮЗ 1 н/о н/о -4.2 -17.3 35 -6 -6 999.0 851.6
09 18.12 З 1 н/о н/о -3.3 -12.4 49 -3 -3 999.3 852.2
10 18.12 З 1 н/о н/о -3.4 -19.3 28 -5 -5 999.5 852.5
11 18.12 З 1 н/о н/о -3.1 -19.5 27 -4 -4 999.8 852.9
12 18.12 СЗ 1
{4}
>70 км 9/0
[Cs]
-3.3 -19.7 27 -5 +5 1000.2 853.2
13 18.12 С 1 н/о н/о -2.0 -20.5 23 -3 -3 1000.1 853.6
14 18.12 С 2 н/о н/о -2.1 -20.1 24 -4 -4 1000.4 853.8
15 18.12 С 2 н/о н/о -1.4 -16.7 30 -3 -3 1000.0 854.0
16 18.12 С 1 н/о н/о -2.7 -15.6 36 -4 -4 1001.1 854.2
17 18.12 С 2 н/о н/о -3.2 -16.4 35 -6 -6 1001.6 854.4
18 18.12 З 1
{3}
55 км 6/0
[Ac trans Ci fib]
-2.6 -14.9 38 -4 -1 1001.5 854.6 -1.0
19 18.12 З 2 н/о н/о -3.3 -15.2 39 -6 -6 1002.1 854.8
20 18.12 З 1 н/о н/о -3.6 -18.2 31 -5 -5 1002.8 855.2
21 18.12 С 2 н/о н/о -4.0 -18.2 32 -6 -6 1003.3 855.4
22 18.12 С 1 н/о н/о -4.1 -17.9 33 -6 -6 1003.8 855.7
23 18.12 ЮЗ 1 н/о н/о -4.4 -16.5 38 -6 -6 1003.8 855.6
00 19.12 ЮЗ 1
{3}
н/о н/о -4.3 -15.2 42 -4 -4 1003.7 855.6
01 19.12 ЮЗ 1 н/о н/о -3.9 -14.8 42 -5 -5 1003.3 855.5
02 19.12 Ю 1 н/о н/о -3.2 -17.9 31 -3 -3 1002.8 855.4

 

Местоположение метеостанции Troll (Антарктида): широта -72.01 долгота 2.38 высота над уровнем моря 1290 м.

В архиве по умолчанию представлена погода в Troll за последнюю неделю. Архивные данные за месяц целиком и за предыдущие месяцы, начиная с января 2011 года, Вы можете получить, выбрав интересующий диапазон дат из раскрывающегося списка и нажав кнопку "Ввод!".


*Определитесь, кто Вы:
робот инопланетянин человек

Внимание! Время в таблицах - всемирное. Для получения местного времени необходимо прибавить поправку, которая в Troll равна 0 ч.

Смотрите также архив погоды в соседних городах и на ближайших метеорологических станциях:

Погода в SANAE (Антарктида) (183 км)
Погода в Kohnen Ep9 (Антарктида) (341 км)
Погода в Maitri (Антарктида) (360 км)
Погода в Novolazarevskaja (Антарктида) (362 км)
Погода в Neumayer Station (Антарктида) (406 км)
Погода в Soerasen (Антарктида) (439 км)
Погода в Nordenskiold Base (Антарктида) (537 км)
Погода в Halley (Антарктида) (970 км)
Погода в Base Belgrano Ii (Антарктида) (1220 км)
Погода в Relay Station (Антарктида) (1314 км)

Пояснения к столбцам:

Ветер - указаны скорость ветра в м/с - средняя за 10 мин, порывы в срок и между сроками (в фигурных скобках) и направление, откуда дует ветер: С - северный, СВ - северо-восточный, В - восточный, ЮВ - юго-восточный, Ю - южный, ЮЗ - юго-западный, З - западный, СЗ - северо-западный.
Видимость - горизонтальная дальность видимости в метрах или километрах. При видимости от 1 до 10 км при отсутствии осадков обычно наблюдается дымка, при ухудшении видимости до 1 км и менее - туман. В сухую погоду видимость может ухудшаться дымом, пылью или мглою.
Явления - указаны атмосферные явления, наблюдавшиеся в срок или в последний час перед сроком; фигурными скобками обозначены явления, наблюдавшиеся между сроками (за 1-3 часа до срока); квадратными скобками обозначены град или гололедные отложения с указанием их диаметра в мм.
Облачность - указаны через наклонную черту общая и нижняя облачность в баллах и высота нижней границы облаков в метрах; квадратными скобками обозначены формы облаков: Ci - перистые, Cs - перисто-слоистые, Cc - перисто-кучевые, Ac - высококучевые, As - высокослоистые, Sc - слоисто-кучевые, Ns - слоисто-дождевые, Cu - кучевые, Cb - кучево-дождевые. Подробнее классификацию облаков см. в Атласе облаков (PDF).
T - Температура воздуха - температура, измеренная на высоте 2 м над землей.
Td - Температура точки росы - температура, при понижении до которой содержащийся в воздухе водяной пар достигнет насыщения.
f - Относительная влажность воздуха - влажноcть воздуха, измеренная на высоте 2 м над землей.
Te - Эффективная температура - температура, которую ощущает одетый по сезону человек в тени. Характеристика душности погоды. При расчете учитывается влияние влажности воздуха и скорости ветра на теплоощущения человека.
Tes - Эффективная температура на солнце - температура, которую ощущает человек, с поправкой на солнечный нагрев. Характеристика знойности погоды. Зависит от высоты солнца над горизонтом, облачности и скорости ветра. Ночью, в пасмурную погоду, а также при ветре 12 м/с и более поправка равна нулю.
P - Атмосферное давление - приведенное к уровню моря атмосферное давление.
Po - Атмосферное давление - измеренное на уровне метеостанции атмосферное давление.
Tmin - Минимальная температура - минимум температуры воздуха на высоте 2 м над землей.
Tmax - Максимальная температура - максимум температуры воздуха на высоте 2 м над землей.
R - Количество осадков - Количество выпавших осадков за период времени, мм. При наведении курсора мыши на число - период времени, за который выпало указанное количество осадков.
R24 - Количество осадков - Количество выпавших осадков за 24 часа, мм.
S - Снежный покров - Высота снежного покрова, см. При наведении курсора мыши на число - состояние снежного покрова и степень покрытия местности в баллах.